METEOR 2-17

导读 | 星芒AI

METEOR 2-17 是俄罗斯一颗气象卫星,属于 METEOR 2 系列,主要用于地球观测和气象监测。该卫星搭载多种遥感仪器,能够收集大气、海洋和地表数据,支持天气预报和环境监测。它于1980年代发射,运行在近地轨道,为俄罗斯及国际气象机构提供重要数据。尽管已退役,其在气象卫星发展史上具有重要意义,为后续卫星系统奠定了基础。

基本信息
目录编号:
18820
目录名称:
METEOR 2-17
国际标识:
1988-005A
轨道中心:
EARTH
卫星名称:
METEOR 2-17
卫星全名:
--
卫星状态:
在轨 (已飞行13832 天)
发射日期:
1988-01-30 UTC
国别 :
俄罗斯(独联体) (CIS)
星等 :
--
轨道信息
数据来源 国际轨道数据
星历时间: 2025-12-13T05:26:42+0800
12小时前
查看轨道信息
半长轴: 7322.079km
偏心率: 0.0015459
轨道倾角: 82.542°
近地点辐角 241.760°
升交点赤经 112.111°
平近点角 236.897°
近地点: 932.624km
远地点: 955.264km
周期: 103.923分钟
每日圈数: 13.856426
详细信息
使用方式:
暂无
2D轨道图
3D轨道图
轨道高度分析图
轨道倾角分析图
轨道综合分析图
查看轨道综合分析图